MST,Max TemperatureF,Mean TemperatureF,Min TemperatureF,Max Dew PointF,MeanDew PointF,Min DewpointF,Max Humidity, Mean Humidity, Min Humidity, Max Sea Level PressureIn, Mean Sea Level PressureIn, Min Sea Level PressureIn, Max VisibilityMiles, Mean VisibilityMiles, Min VisibilityMiles, Max Wind SpeedMPH, Mean Wind SpeedMPH, Max Gust SpeedMPH,PrecipitationIn, CloudCover, Events, WindDirDegrees
2012-11-1,68,52,39,39,32,26,87,54,22,29.94,29.82,29.73,10,9,2,33,13,40,0.10,4,Rain,261
2012-11-2,55,44,32,35,30,26,79,56,37,30.17,30.05,29.90,10,10,10,22,16,24,0.00,5,,262
2012-11-3,63,45,28,31,25,20,85,51,20,30.21,30.12,30.03,10,10,10,28,12,40,0.00,2,,272
2012-11-4,62,57,52,35,32,28,50,41,35,30.26,30.17,30.02,10,10,10,31,19,38,0.00,6,,261
2012-11-5,66,59,52,34,32,29,49,37,26,30.23,30.10,29.96,10,10,10,43,23,54,0.00,0,,248
2012-11-6,68,60,51,32,31,29,48,35,23,30.14,30.04,29.86,10,10,10,32,21,45,0.00,0,,225
2012-11-7,66,54,41,39,31,27,71,40,23,29.89,29.77,29.63,10,10,10,38,27,48,0.01,2,Rain,230
2012-11-8,41,34,28,34,28,25,93,82,55,29.95,29.85,29.72,10,6,1,28,15,38,0.07,8,Snow,82
2012-11-9,28,20,12,27,19,8,93,84,68,29.95,29.75,29.63,10,2,0,16,11,22,0.41,8,Fog-Snow,28
2012-11-10,12,6,0,7,3,-6,85,74,64,30.19,29.93,29.78,10,4,1,15,11,17,0.00,7,Snow,298
2012-11-11,24,14,3,11,7,-4,73,61,53,30.33,30.23,30.12,10,8,2,40,20,50,0.00,3,,266
2012-11-12,36,28,21,25,19,8,70,61,51,30.33,30.18,30.08,10,4,0,47,32,62,0.06,1,Rain-Snow,236
2012-11-13,41,38,34,25,23,19,59,54,49,30.27,30.21,30.12,10,10,10,38,26,52,0.00,6,,245
2012-11-14,45,38,28,31,27,23,79,65,49,30.30,30.16,30.08,10,10,7,25,16,33,0.00,7,Snow,268
2012-11-15,46,35,24,25,22,18,78,54,37,30.37,30.23,30.03,10,10,10,22,14,34,0.00,1,,264
2012-11-16,54,46,39,29,25,22,60,45,30,30.02,29.96,29.91,10,10,10,33,13,45,0.00,4,,252
2012-11-17,54,42,30,31,29,24,79,55,37,30.05,29.91,29.74,10,10,10,21,13,26,0.00,1,,256
2012-11-18,54,44,34,36,31,24,76,61,41,30.01,29.81,29.63,10,10,9,31,13,43,0.05,3,Rain,248
2012-11-19,55,46,37,30,27,23,55,44,33,30.03,29.98,29.86,10,10,10,40,22,56,0.00,0,,229
2012-11-20,60,56,52,32,31,28,45,40,35,29.88,29.82,29.74,10,10,10,41,34,59,0.00,0,,223
2012-11-21,57,44,32,36,30,21,93,67,30,29.98,29.79,29.56,10,7,0,38,22,51,0.15,6,Fog-Rain-Snow-Thunderstorm,258
2012-11-22,37,32,26,21,17,12,72,54,41,30.53,30.34,30.00,10,10,10,26,15,34,0.00,1,,262
2012-11-23,48,40,32,20,16,12,54,38,24,30.46,30.26,30.01,10,10,10,46,28,60,0.00,0,,235
2012-11-24,50,43,35,30,23,13,72,43,23,29.99,29.95,29.91,10,10,10,40,27,55,0.00,6,Rain,234
2012-11-25,35,30,24,30,28,16,89,84,69,30.32,30.01,29.91,10,4,0,12,5,,0.09,8,Fog-Snow,255
2012-11-26,35,25,15,18,12,8,77,62,46,30.40,30.30,30.20,10,10,10,26,15,33,0.00,0,,282
2012-11-27,46,32,18,23,17,8,65,50,33,30.24,30.18,30.10,10,10,10,22,17,31,0.00,0,,290
2012-11-28,55,46,37,23,20,18,50,33,23,30.08,29.94,29.78,10,10,10,37,19,45,0.00,0,,236
2012-11-29,53,48,43,33,27,22,68,43,32,29.87,29.83,29.76,10,10,10,41,25,50,0.00,2,,233
2012-11-30,55,49,43,35,30,26,74,45,37,29.75,29.64,29.53,10,10,10,38,25,48,0.00,3,,240